Regional Weather Roundup
Issued by NWS Nashville, TN

Home | Current Version | Previous Version | Text Only | Print | Product List | Glossary On
Versions: 1 2 3 4 5 6 7 8 9 10 11 12 13 14 15 16 17 18 19 20 21 22 23 24 25 26 27 28 29 30 31 32 33 34 35 36 37 38 39 40 41 42 43 44 45 46 47 48 49 50
000
ASUS44 KOHX 302210
RWROHX
MIDDLE TENNESSEE HOURLY WEATHER ROUNDUP
NATIONAL WEATHER SERVICE NASHVILLE TN
500 PM CDT SUN APR 30 2017

NOTE: "FAIR" INDICATES FEW OR NO CLOUDS BELOW 12,000 FEET WITH
NO SIGNIFICANT WEATHER AND/OR OBSTRUCTIONS TO VISIBILITY.

* THESE REPORTS ARE NOT UNDER NWS QUALITY CONTROL AND MAY NOT
  REPORT WEATHER SUCH AS PRECIPITATION AND FOG.


TNZ005>011-023>034-057-059-062>066-078-080-302300
...NORTHERN MIDDLE TENNESSEE...

CITY           SKY/WX    TMP DP  RH WIND       PRES   REMARKS
CLARKSVILLE    CLOUDY    71  63  75 S10G20    29.76R
CROSSVILLE     CLOUDY    75  60  59 S13G25    29.97F
GALLATIN       PTSUNNY   68  64  88 E12       29.83F
DICKSON        CLOUDY    66  63  90 S12       29.78R
LEBANON        CLOUDY    66  64  93 E9        29.83F
NASHVILLE      CLOUDY    68  65  90 S18       29.81F
PORTLAND       PTSUNNY   66  63  88 SE13G21   29.78F FOG
SMYRNA         LGT RAIN  67  64  90 S13       29.85F
SPARTA         CLOUDY    79  63  57 S13G23    29.90R
SPRINGFIELD    SUNNY     66  64  94 SE9G17    29.75F
$$
TNZ056-058-060-061-075>077-079-093>097-302300
...SOUTHERN MIDDLE TENNESSEE...

CITY           SKY/WX    TMP DP  RH WIND       PRES   REMARKS
COLUMBIA       SUNNY    N/A N/A N/A SE17      29.80F
FAYETTEVILLE     N/A     66  66 100 S14G22    29.90S
MCMINNVILLE    CLOUDY    64  64 100 VRB5      29.94R
SHELBYVILLE    PTSUNNY   68  66  94 SE13      29.91R
TULLAHOMA      MOSUNNY   64  63  94 S7        29.94R
WINCHESTER     MOSUNNY   68  64  88 S7        29.94F
$$


...KEY TO REMARKS...
VSB - VISIBILITY IN MILES
WCI - WIND CHILL INDEX
HX  - HEAT INDEX




USA.gov is the U.S. government's official web portal to all federal, state and local government web resources and services.